[[{"header":{"parameterUnit":"m.s-1","parameterCategory":1,"la1":30.2991,"la2":30.254,"lo1":-89.0895,"lo2":-89.0444,"dy":0.0017,"dx":0.0017,"nx":28,"ny":28,"refTime":"2025-03-10T21:00:00:Z","depth":0,"parameterNumber":2,"parameterNumberName":"U-component_of_WINDS"},"data":[0,0,0,0,0,0,0,0,0,0,0,0,0,0,0,0,0,0,0,0,0,0,0,0,0,0,0,0,0,0,0,0,0,0,0,0,0,0,0,0,0,0,0,0,0,0,0,0,0,0,0,0,0,0,0,0,0,0,3.6213,3.6213,0,3.6238,3.6238,3.6238,3.6169,3.6166,3.6164,3.6162,3.6189,3.6191,3.6194,0,0,0,0,0,0,0,0,0,0,0,0,0,3.6105,3.6108,3.6213,3.6213,3.6214,3.6238,3.6238,3.6238,3.6169,3.6166,3.6164,3.6161,3.6188,3.6191,3.6194,0,0,0,0,0,0,0,0,0,0,0,0,0,3.6143,3.6108,3.6213,3.6182,3.6179,3.6238,3.6238,3.6239,3.617,3.6166,3.6163,3.616,3.6187,3.6191,3.6195,3.6285,0,0,3.6207,3.6209,0,0,0,0,0,0,0,0,3.6141,3.6147,3.6186,3.6184,3.6181,3.6197,3.621,3.6254,3.617,3.6173,3.6162,3.6158,3.6194,3.6197,3.6209,3.6286,3.6287,3.6208,3.621,3.6212,3.6213,0,0,0,0,0,0,0,3.6139,3.6146,3.6223,3.6187,3.6184,3.6167,3.6168,3.6218,3.6202,3.6173,3.6168,3.6172,3.6192,3.6205,3.6209,3.6288,3.6208,3.6211,3.6214,3.6215,3.6437,3.644,0,0,0,0,0,0,3.614,3.6144,3.6222,3.6224,3.6153,3.6171,3.6173,3.6195,3.6201,3.6199,3.6174,3.6168,3.62,3.6205,3.621,3.6314,3.6212,3.6216,3.6218,3.6433,3.6438,3.6441,0,0,0,0,0,0,3.6138,3.6148,3.6221,3.6183,3.6191,3.6176,3.6202,3.6197,3.621,3.6202,3.6199,3.6191,3.6198,3.6204,3.6266,3.6314,3.6218,3.6221,3.6429,3.6435,3.6439,3.6524,0,0,0,0,0,0,3.6135,3.6147,3.6182,3.6184,3.6193,3.6277,3.6205,3.62,3.6218,3.621,3.6217,3.6215,3.6196,3.626,3.627,3.6318,3.6224,3.6425,3.6432,3.6438,3.6517,3.6531,3.6543,0,0,0,0,0,3.6132,3.6205,3.6184,3.6194,3.6235,3.628,3.6285,3.6262,3.6222,3.6256,3.625,3.6215,3.6307,3.6267,3.6278,3.6327,3.6422,3.643,3.6437,3.6511,3.6528,3.6543,0,0,0,0,0,0,3.621,3.6205,3.6181,3.6258,3.627,3.6268,3.6311,3.6281,3.6305,3.6297,3.6267,3.6269,3.6336,3.6338,3.6294,3.6413,3.6358,3.6368,3.641,3.6426,3.644,3.6437,3.6228,0,0,0,0,0,3.6236,3.6273,3.6266,3.6335,3.6342,3.6325,3.6344,3.6324,3.6336,3.6341,3.634,3.6352,3.6384,3.6405,3.6434,3.6517,3.6516,3.6556,3.6569,3.658,3.6589,3.6631,3.6648,3.6467,3.6467,3.6467,0,0,3.6291,3.6293,3.6318,3.635,3.6357,3.6395,3.633,3.6374,3.6401,3.6347,3.6405,3.6405,3.6417,3.6489,3.652,3.6492,3.6639,3.659,3.6599,3.6602,3.664,3.6657,3.6673,3.6472,3.6471,3.647,0,0,3.6409,3.6415,3.6471,3.6479,3.649,3.6478,3.6492,3.6494,3.6492,3.6549,3.6508,3.6541,3.6597,3.6606,3.6618,3.6738,3.6706,3.6749,3.6819,3.686,3.6874,3.6886,3.6927,3.6942,3.6758,3.6758,3.6758,0,3.6476,3.6532,3.6504,3.655,3.6564,3.6516,3.6572,3.6581,3.6602,3.6613,3.6581,3.6648,3.6653,3.6726,3.6755,3.6767,3.678,3.6747,3.6874,3.6886,3.6897,3.6936,3.6952,3.6763,3.6762,3.6762,3.6761,0,3.6612,3.6651,3.6695,3.6714,3.6734,3.6785,3.6765,3.6788,3.6766,3.6758,3.6816,3.682,3.6847,3.6863,3.6843,3.6932,3.6914,3.6879,3.6822,3.692,3.6956,3.697,3.677,3.6768,3.6767,3.6765,0,0,3.6782,3.6783,3.68,3.6807,3.6814,3.6844,3.6892,3.6918,3.6938,3.6953,3.6992,3.7039,3.7006,3.702,3.7,3.7036,3.7128,3.6996,3.6995,3.7019,3.7224,3.725,3.7268,3.7107,3.711,3.7112,3.7223,0,3.6897,3.6978,3.6954,3.7036,3.707,3.7024,3.7066,3.7075,3.7068,3.7096,3.7088,3.7121,3.7076,3.7083,3.7117,3.711,3.7169,3.7102,3.7142,3.7144,3.7139,3.7287,3.7314,3.7419,3.7237,3.7239,3.7241,0,3.7042,3.7062,3.7147,3.7146,3.716,3.7197,3.7218,3.7246,3.7255,3.7247,3.7262,3.7234,3.728,3.7224,3.7286,3.7241,3.7256,3.7255,3.7258,3.726,3.7197,3.7291,3.7452,3.7467,3.7263,3.7261,3.726,0,3.7155,3.7203,3.7259,3.7266,3.7268,3.7295,3.7297,3.7302,3.7319,3.7337,3.7347,3.7372,3.7385,3.7404,3.7383,3.7344,3.7448,3.739,3.7442,3.7443,3.7465,3.7464,3.7629,3.7478,3.7477,3.7477,3.7477,0,3.7286,3.7339,3.7309,3.7344,3.7401,3.7373,3.7431,3.7427,3.7432,3.7465,3.7427,3.7459,3.743,3.7459,3.7443,3.7496,3.7503,3.7497,3.7492,3.7499,3.75,3.7508,3.75,3.7481,3.748,3.748,3.7479,0,3.7421,3.7404,3.7461,3.7457,3.7457,3.75,3.7496,3.7528,3.7517,3.7559,3.7567,3.7551,3.7583,3.7564,3.7597,3.7586,3.7654,3.764,3.7651,3.7647,3.7699,3.7693,3.7874,3.7895,3.7732,3.7733,3.7734,0,3.7505,3.7545,3.7544,3.7563,3.7567,3.7598,3.7614,3.7587,3.7605,3.7617,3.7646,3.7674,3.7695,3.7748,3.7739,3.7763,3.7748,3.781,3.7752,3.7758,3.7747,3.7744,3.7747,3.7821,3.7823,3.7825,3.7826,0,3.7655,3.7644,3.7668,3.7689,3.7709,3.7724,3.7737,3.7754,3.7727,3.7749,3.778,3.7797,3.7829,3.7857,3.7877,3.7879,3.7848,3.7844,3.7857,3.7865,3.7869,3.7865,3.7681,3.784,3.7839,3.7838,3.7837,3.7836,3.7766,3.7798,3.7802,3.783,3.7836,3.7848,3.7876,3.7869,3.7894,3.7917,3.79,3.7937,3.7942,3.7966,3.7971,3.7999,3.7974,3.7994,3.7998,3.8003,3.8009,3.7865,3.8003,3.8003,3.8002,3.8002,3.8002,0,3.7912,3.7912,3.7938,3.7955,3.7977,3.7945,3.7957,3.7977,3.8009,3.8017,3.8037,3.8072,3.8099,3.8091,3.8115,3.8138,3.8125,3.8145,3.8143,3.8143,3.8031,3.8017,3.8156,3.8156,3.8156,3.8156,3.8156,3.8156,3.7991,3.8042,3.8031,3.8085,3.8085,3.8119,3.8128,3.8138,3.8144,3.8184,3.8206,3.82,3.8202,3.8225,3.8247,3.8244,3.8254,3.8279,3.8271,3.8167,3.8151,3.8137,3.8123,3.8282,3.8282,3.838,3.8381,3.8382]},{"header":{"parameterUnit":"m.s-1","parameterCategory":1,"la1":30.2991,"la2":30.254,"lo1":-89.0895,"lo2":-89.0444,"dy":0.0017,"dx":0.0017,"nx":28,"ny":28,"refTime":"2025-03-10T21:00:00:Z","depth":0,"parameterNumber":3,"parameterNumberName":"V-component_of_WINDS"},"data":[0,0,0,0,0,0,0,0,0,0,0,0,0,0,0,0,0,0,0,0,0,0,0,0,0,0,0,0,0,0,0,0,0,0,0,0,0,0,0,0,0,0,0,0,0,0,0,0,0,0,0,0,0,0,0,0,0,0,3.0752,3.0751,0,3.0673,3.0672,3.0671,3.0601,3.06,3.06,3.0599,3.0513,3.0512,3.051,0,0,0,0,0,0,0,0,0,0,0,0,0,3.0836,3.0835,3.0752,3.0751,3.075,3.0673,3.0672,3.0671,3.0601,3.06,3.0599,3.0598,3.0514,3.0512,3.051,0,0,0,0,0,0,0,0,0,0,0,0,0,3.0782,3.0834,3.0752,3.0706,3.0701,3.0673,3.0672,3.0671,3.0602,3.06,3.0599,3.0598,3.0515,3.0512,3.051,3.052,0,0,3.0503,3.0502,0,0,0,0,0,0,0,0,3.0786,3.0779,3.0714,3.0709,3.0703,3.0646,3.067,3.062,3.0602,3.0639,3.0599,3.0597,3.0558,3.0552,3.054,3.0516,3.0513,3.0503,3.0502,3.0501,3.05,0,0,0,0,0,0,0,3.0789,3.0782,3.072,3.0713,3.0706,3.0687,3.0678,3.0661,3.0606,3.0636,3.0631,3.0622,3.0555,3.0542,3.0537,3.0511,3.0503,3.0501,3.05,3.0499,3.049,3.0491,0,0,0,0,0,0,3.0801,3.0786,3.0723,3.0718,3.0742,3.0687,3.0677,3.0665,3.0606,3.0596,3.0624,3.062,3.0547,3.054,3.0534,3.0541,3.0501,3.0498,3.0497,3.0489,3.049,3.0491,0,0,0,0,0,0,3.0803,3.0796,3.0726,3.0751,3.074,3.0687,3.0674,3.0665,3.0652,3.0597,3.0587,3.0621,3.0546,3.0537,3.0524,3.0537,3.0497,3.0495,3.0488,3.0489,3.0491,3.0556,0,0,0,0,0,0,3.0806,3.0797,3.0802,3.0751,3.0739,3.0719,3.0675,3.0664,3.0649,3.0643,3.0592,3.0582,3.0544,3.0528,3.0522,3.0533,3.0494,3.0486,3.0488,3.049,3.0552,3.0559,3.0566,0,0,0,0,0,3.0809,3.0822,3.0802,3.0795,3.0744,3.072,3.0713,3.067,3.065,3.0653,3.0618,3.0584,3.0537,3.0527,3.052,3.0531,3.0485,3.0488,3.049,3.0549,3.0558,3.0565,0,0,0,0,0,0,3.0874,3.0815,3.0792,3.079,3.0761,3.0709,3.0711,3.0681,3.0656,3.0651,3.0598,3.0587,3.0579,3.0553,3.0544,3.0536,3.0506,3.0507,3.0553,3.0561,3.0568,3.0574,3.0492,0,0,0,0,0,3.0889,3.0876,3.0824,3.0827,3.0814,3.0766,3.0753,3.0723,3.069,3.0677,3.0641,3.0608,3.0586,3.0572,3.0549,3.0548,3.0535,3.0552,3.0559,3.0564,3.0565,3.0561,3.0568,3.05,3.05,3.05,0,0,3.0918,3.0884,3.0879,3.0839,3.0813,3.0799,3.0755,3.0743,3.0731,3.0674,3.066,3.0632,3.0592,3.0585,3.058,3.0563,3.0581,3.0568,3.0573,3.057,3.0564,3.0571,3.0577,3.0502,3.0501,3.0501,0,0,3.0964,3.0938,3.0937,3.0912,3.0873,3.0841,3.0841,3.0793,3.0772,3.0758,3.0714,3.0699,3.0662,3.0635,3.0617,3.0652,3.0618,3.0645,3.068,3.0677,3.0682,3.0686,3.0697,3.0702,3.0647,3.0647,3.0647,0,3.1004,3.0983,3.094,3.093,3.0913,3.0862,3.0859,3.0837,3.0792,3.0781,3.0763,3.0715,3.0685,3.067,3.0679,3.0666,3.0662,3.0651,3.0685,3.0689,3.0692,3.0702,3.0707,3.0651,3.065,3.065,3.065,0,3.1034,3.102,3.1024,3.0984,3.0967,3.0961,3.0914,3.0903,3.0874,3.0843,3.0827,3.0789,3.0756,3.0751,3.0722,3.0731,3.0721,3.0696,3.0664,3.0703,3.0711,3.0715,3.0656,3.0654,3.0653,3.0652,0,0,3.1119,3.1054,3.1056,3.1037,3.099,3.0978,3.0968,3.0938,3.0928,3.0899,3.0888,3.0858,3.0834,3.0813,3.078,3.0777,3.0805,3.0751,3.0749,3.0761,3.0811,3.083,3.0835,3.0784,3.0784,3.0785,3.0814,0,3.1156,3.1138,3.1098,3.1092,3.1077,3.1029,3.102,3.099,3.096,3.0942,3.0909,3.0888,3.0858,3.0844,3.084,3.0803,3.0814,3.0801,3.0771,3.0771,3.0782,3.084,3.086,3.0889,3.0817,3.0817,3.0818,0,3.1196,3.1171,3.1164,3.1118,3.111,3.1104,3.1072,3.1056,3.102,3.0998,3.0975,3.094,3.0925,3.0897,3.0874,3.0866,3.0851,3.0832,3.0832,3.0826,3.0796,3.0834,3.0898,3.0902,3.0823,3.0822,3.0822,0,3.1257,3.1221,3.1212,3.1197,3.1143,3.1139,3.1116,3.1079,3.1063,3.1035,3.1023,3.0994,3.0977,3.0953,3.0909,3.0893,3.0891,3.086,3.0871,3.0872,3.0871,3.0872,3.0932,3.0865,3.0865,3.0865,3.0865,0,3.1301,3.1298,3.1238,3.1233,3.1227,3.1181,3.1176,3.1148,3.1115,3.1102,3.1058,3.1045,3.0989,3.097,3.0935,3.0921,3.0914,3.0894,3.0885,3.0898,3.09,3.0886,3.0883,3.0866,3.0866,3.0865,3.0865,0,3.1367,3.1327,3.1314,3.1264,3.1252,3.125,3.1206,3.1198,3.1166,3.1149,3.1142,3.1092,3.1066,3.1021,3.0982,3.0959,3.0951,3.0936,3.0964,3.0958,3.0971,3.097,3.1023,3.1027,3.0959,3.096,3.0961,0,3.1398,3.1395,3.1345,3.1334,3.1313,3.1295,3.1279,3.1232,3.1217,3.1175,3.1171,3.1143,3.1117,3.1079,3.1037,3.1007,3.0989,3.101,3.0984,3.0997,3.0987,3.0988,3.0986,3.1016,3.1017,3.1018,3.1018,0,3.1456,3.1436,3.1415,3.1387,3.137,3.1345,3.1318,3.1311,3.1257,3.1242,3.1216,3.1197,3.1158,3.113,3.1093,3.1067,3.1033,3.1027,3.1027,3.104,3.1055,3.1045,3.0978,3.1026,3.1025,3.1024,3.1024,3.1024,3.1503,3.1498,3.1462,3.144,3.1415,3.1391,3.138,3.1348,3.1326,3.1292,3.1266,3.1242,3.1203,3.1152,3.1127,3.1106,3.1091,3.1092,3.1092,3.1093,3.1097,3.106,3.11,3.1099,3.1099,3.1099,3.1099,0,3.1557,3.1532,3.1513,3.1477,3.1459,3.1431,3.1399,3.1386,3.1366,3.1334,3.1311,3.1281,3.1253,3.1209,3.1177,3.1168,3.1152,3.1161,3.1161,3.1155,3.1114,3.1116,3.1175,3.1175,3.1175,3.1175,3.1175,3.1175,3.1583,3.1572,3.1548,3.1524,3.1498,3.1475,3.146,3.1436,3.1411,3.138,3.1357,3.1329,3.1292,3.1257,3.1229,3.1217,3.1206,3.122,3.1203,3.1165,3.1158,3.1151,3.1153,3.1219,3.1219,3.1245,3.1246,3.1246]}]]